Location: Drocourt
(49.0571°N, 1.7669°E)
Time: 16:20:47
(UTC+00:00)

Vanguard 3 - Pass Details

Date: 18 April 2024
Orbit: 509 x 3233 km, 33.3° (Epoch: 23 May)

Event Time Altitude Azimuth Distance (km) Brightness Sun altitude
Rises 08:01:47 0° 254° (WSW) 4,494 10.5 29.3°
Reaches altitude 10° 08:06:41 10° 235° (SW) 2,945 9.8 30.1°
Maximum altitude 08:10:23 15° 202° (SSW) 2,179 9.5 30.6°
Drops below altitude 10° 08:13:19 10° 166° (SSE) 2,231 10.0 31.1°
Sets 08:16:15 0° 142° (SE) 2,888 10.8 31.5°
